Regional Weather Roundup
Issued by NWS

Home | Current Version | Previous Version | Graphics & Text | Print | Product List | Glossary On
Versions: 1 2 3 4 5 6 7 8 9 10 11 12 13 14 15 16 17 18 19 20 21 22 23 24 25 26 27 28 29 30 31 32 33 34 35 36 37 38 39 40 41 42 43 44 45 46 47 48 49 50
000
ASUS43 KMPX 291210
RWRMN
WEATHER ROUNDUP FOR MINNESOTA
NATIONAL WEATHER SERVICE TWIN CITIES/CHANHASSEN MN
700 AM CDT WED JUL 29 2015


NOTE: "FAIR" INDICATES FEW OR NO CLOUDS BELOW 12,000 FEET WITH NO
SIGNIFICANT WEATHER AND/OR OBSTRUCTIONS TO VISIBILITY. N/A MEANS
CURRENT SKY AND/OR WEATHER CONDITIONS ARE NOT AVAILABLE.

MNZ060>063-068>070-291300-
   Twin Cities Metro

CITY           SKY/WX    TMP DP  RH WIND       PRES   REMARKS
TWIN CITIES    PTCLDY    67  50  54 SW15      29.94R
6HR MIN TEMP:  66; 6HR MAX TEMP:  72;

ST PAUL        CLEAR     66  52  60 W14       29.94R
CRYSTAL        CLEAR     68  49  50 SW15      29.92R
BLAINE         CLEAR     70  52  52 SW15G25   29.92R
LAKEVILLE      CLEAR     63  52  67 W12G18    29.96S
EDEN PRAIRIE   CLEAR     64  51  62 W13G22    29.95R
6HR MIN TEMP:  63; 6HR MAX TEMP:  67;

SOUTH ST PAUL  CLEAR     67  51  56 W13G20    29.94R
LAKE ELMO      FAIR      64  54  68 SW10      29.94R
$$
MNZ001>005-007-008-013>017-022>024-027-028-291300-
   Northwest Minnesota

CITY           SKY/WX    TMP DP  RH WIND       PRES   REMARKS
BEMIDJI        CLOUDY    62  51  68 W26G32    29.67S
HALLOCK        CLOUDY    63  57  82 W18G28    29.55R
ROSEAU         CLOUDY    63  57  82 W17G28    29.51R
WARROAD        CLOUDY    61  55  82 SW14G24   29.50R FOG
THIEF RVR FALL CLOUDY    63  54  72 W16G26    29.62R
CROOKSTON      CLOUDY    64  55  72 W23G33    29.66R
FOSSTON        CLOUDY    59  52  77 SW20G28   29.68R
DETROIT LAKES  CLOUDY    63  50  63 W21G33    29.77S
MOORHEAD       MOCLDY    64  52  63 W18G29    29.79R
PARK RAPIDS    CLOUDY    64  50  60 W18G31    29.74R
MAHNOMEN       CLOUDY    62  52  70 W18G33    29.72R
$$
MNZ006-009>011-018-025>026-291300-
   North Central Minnesota

CITY           SKY/WX    TMP DP  RH WIND       PRES   REMARKS
BAUDETTE       CLOUDY    60  56  86 SW15G25   29.52R
FLAG ISLAND    CLOUDY    61  57  88 SW18G25   29.43R
INTL FALLS     LGT RAIN  62  55  77 SW18G25   29.55R
6HR MIN TEMP:  62; 6HR MAX TEMP:  66; 6HR PCP: TRACE;

WASKISH        CLOUDY    64  57  77 SW29G41   29.59R
BIG FORK       CLOUDY    63  54  72 SW15G23   29.64R
LONGVILLE      CLOUDY    64  52  63 SW15G22   29.72S
GRAND RAPIDS   CLOUDY    64  48  55 SW13G25   29.70S
CRANE LAKE     CLOUDY    63  52  67 SW13G18   29.60F
ORR            CLOUDY    63  48  59 SW12G22   29.59S
COOK           CLOUDY    64  52  63 SW16G22   29.64R
WALKER         CLOUDY    63  50  63 W17G33    29.70R
$$
MNZ012-019>021-037-291300-
   Northeast Minnesota

CITY           SKY/WX    TMP DP  RH WIND       PRES   REMARKS
DULUTH         PTSUNNY   65  49  56 W23G37    29.73R
6HR MIN TEMP:  63; 6HR MAX TEMP:  69;

ELY            CLOUDY    63  48  59 SW12G22   29.63F
HIBBING        CLOUDY    64  50  60 SW12G20   29.67F
EVELETH        CLOUDY    63  46  55 SW16G23   29.68S
DULUTH HARBOR  CLOUDY    66  54  63 SW18      29.73R
TWO HARBORS    CLOUDY    66  54  63 SW15G22   29.68F
SILVER BAY     CLOUDY    64  50  59 SW6       29.67S
GRAND MARAIS     N/A     56  51  84 W6        29.65F
G MARAIS ARPRT SUNNY     61  48  63 S15G25    29.67S
$$
MNZ029>031-032-039>041-046>048-054>057-064-291300-
   West Central Minnesota

CITY           SKY/WX    TMP DP  RH WIND       PRES   REMARKS
FERGUS FALLS   CLEAR     63  50  63 W18G28    29.83S
WHEATON        CLEAR     63  48  59 SW17G24   29.92R
MORRIS         CLEAR     63  52  67 SW16      29.91R
ALEXANDRIA     CLEAR     64  49  57 W21G33    29.89R
ELBOW LAKE     FAIR      61  49  65 W17       29.87R
WADENA         CLEAR     63  50  63 W22G33    29.79S
GLENWOOD       CLEAR     63  52  67 SW13G18   29.91R
APPLETON       CLEAR     63  50  63 SW13      29.95R
BENSON         CLEAR     63  48  59 W15       29.94R
ORTONVILLE     CLEAR     63  48  59 W13G23    29.94R
MADISON        CLEAR     63  48  59 W9        29.98R
WILLMAR        FAIR      63  52  67 SW14      29.96S
$$
MNZ033>034-036-042>043-049>051-058-059-291300-
   Central Minnesota

CITY           SKY/WX    TMP DP  RH WIND       PRES   REMARKS
ST CLOUD       CLEAR     65  50  58 SW12G22   29.88R
6HR MIN TEMP:  65; 6HR MAX TEMP:  69;

SAUK CENTRE    FAIR      60  51  71 SW15      29.89R
PAYNESVILLE    CLEAR     62  48  59 S20G25    29.92S
AITKIN         CLOUDY    66  50  55 SW13G24   29.76R
PINE RIVER     CLOUDY    64  52  63 SW12G20   29.80R
BRAINERD       PTCLDY    64  49  57 W23G31    29.79S
STAPLES        CLEAR     63  48  59 W17G24    29.80S
LONG PRAIRIE   FAIR      63  48  59 SW16      29.87R
LITTLE FALLS   CLEAR     63  46  55 SW13G18   29.84S
LITCHFIELD     CLEAR     64  52  63 SW8G20    29.95R
BUFFALO        CLEAR     65  50  57 SW6       29.94R
MAPLE LAKE     CLEAR     66  52  59 SW9G17    29.93S
$$
MNZ037-044-045-052-053-291300-
   East Central Minnesota

CITY           SKY/WX    TMP DP  RH WIND       PRES   REMARKS
PRINCETON      CLEAR     66  52  59 SW10G18   29.88R
MORA           SUNNY     64  50  59 SW13G20   29.86R
CAMBRIDGE      CLEAR     70  52  52 SW10G23   29.86R
RUSH CITY      MOSUNNY   66  50  57 SW12G18   29.86R
MOOSE LAKE     CLOUDY    64  50  59 W13G23    29.76R
HINCKLEY       FAIR      64  52  63 SW15      29.83R
MCGREGOR       CLOUDY    64  50  59 SW10G23   29.76S
$$
MNZ071>073-080-081-089-090-097-098-291300-
   Southwest Minnesota

CITY           SKY/WX    TMP DP  RH WIND       PRES   REMARKS
MONTEVIDEO     CLEAR     63  52  67 W10       29.99R
GRANITE FALLS  CLEAR     60  51  70 SW13      30.01S
CANBY          CLEAR     60  50  69 SW8       30.02R
MARSHALL       CLEAR     63  46  55 W13       30.02F
REDWOOD FALLS  CLEAR     65  49  56 W13G21    29.99R
OLIVIA         CLEAR     59  46  63 SW12      29.97S
PIPESTONE      CLEAR     55  50  82 SW3       30.08S
WINDOM         CLEAR     59  52  77 W9        30.06R
WORTHINGTON    CLEAR     59  48  67 W9        30.09R
JACKSON        CLEAR     61  52  72 W9        30.08R
TRACY          CLEAR     63  50  63 W12G17    30.04R
SLAYTON        CLEAR     59  51  74 CALM      30.07S
$$
MNZ065>067-074>077-082>085-091>093-291300-
   South Central Minnesota

CITY           SKY/WX    TMP DP  RH WIND       PRES   REMARKS
MANKATO        CLEAR     63  52  67 W12       30.01S
NEW ULM        CLEAR     61  52  72 W9        30.00S
ST JAMES       CLEAR     61  54  77 SW9       30.04S
FAIRMONT       CLEAR     64  48  55 W12       30.05R
GLENCOE        CLEAR     63  54  73 SW8       29.96S
FARIBAULT      CLEAR     64  55  72 W12       29.99S
OWATONNA       CLEAR     61  54  77 W10       30.01R
WASECA         CLEAR     57  54  88 SW8       30.04R
ALBERT LEA     PTCLDY    63  54  72 SW8       30.04R
$$
MNZ078>079-086>088-094>096-291300-
   Southeast Minnesota

CITY           SKY/WX    TMP DP  RH WIND       PRES   REMARKS
ROCHESTER      MOSUNNY   62  54  74 W10       30.02R
6HR MIN TEMP:  61; 6HR MAX TEMP:  68;

RED WING       SUNNY     66  54  63 W8        29.94R
STANTON        CLEAR     65  54  67 SW10      29.96S
DODGE CENTER   PTCLDY    61  54  77 SW9       30.01S
WINONA         MOSUNNY   70  54  56 W7        29.97F
AUSTIN         PTCLDY    63  55  77 SW7       30.03R
PRESTON        PTSUNNY   62  55  78 W8        30.03R
$$
ABBREVIATIONS USED IN REMARKS
   TC - TEMPERATURES IN CELSIUS
  WCI - WIND CHILL INDEX
   HX - HEAT INDEX
  VSB - VISIBILITY
$$


USA.gov is the U.S. government's official web portal to all federal, state and local government web resources and services.